Year,Month,Day,Hour,Minute,Value (Times are PST for temperature in C)
2018,08,22,00,00,15.90
2018,08,22,00,01,15.90
2018,08,22,00,02,15.80
2018,08,22,00,03,15.80
2018,08,22,00,04,15.80
2018,08,22,00,05,15.80
2018,08,22,00,06,15.80
2018,08,22,00,07,15.80
2018,08,22,00,08,15.70
2018,08,22,00,09,15.70
2018,08,22,00,10,15.70
2018,08,22,00,11,15.70
2018,08,22,00,12,15.60
2018,08,22,00,13,15.60
2018,08,22,00,14,15.60
2018,08,22,00,15,15.60
2018,08,22,00,16,15.50
2018,08,22,00,17,15.50
2018,08,22,00,18,15.50
2018,08,22,00,19,15.50
2018,08,22,00,20,15.50
2018,08,22,00,21,15.50
2018,08,22,00,22,15.50
2018,08,22,00,23,15.50
2018,08,22,00,24,15.50
2018,08,22,00,25,15.50
2018,08,22,00,26,15.50
2018,08,22,00,27,15.50
2018,08,22,00,28,15.50
2018,08,22,00,29,15.50
2018,08,22,00,30,15.40
2018,08,22,00,31,15.40
2018,08,22,00,32,15.40
2018,08,22,00,33,15.40
2018,08,22,00,34,15.30
2018,08,22,00,35,15.30
2018,08,22,00,36,15.30
2018,08,22,00,37,15.30
2018,08,22,00,38,15.30
2018,08,22,00,39,15.30
2018,08,22,00,40,15.30
2018,08,22,00,41,15.30
2018,08,22,00,42,15.30
2018,08,22,00,43,15.30
2018,08,22,00,44,15.30
2018,08,22,00,45,15.30
2018,08,22,00,46,15.30
2018,08,22,00,47,15.30
2018,08,22,00,48,15.30
2018,08,22,00,49,15.30
2018,08,22,00,50,15.20
2018,08,22,00,51,15.20
2018,08,22,00,52,15.20
2018,08,22,00,53,15.20
2018,08,22,00,54,15.20
2018,08,22,00,55,15.20
2018,08,22,00,56,15.20
2018,08,22,00,57,15.20
2018,08,22,00,58,15.20
2018,08,22,00,59,15.20
2018,08,22,01,00,15.10
2018,08,22,01,01,15.10
2018,08,22,01,02,15.10
2018,08,22,01,03,15.10
2018,08,22,01,04,15.10
2018,08,22,01,05,15.10
2018,08,22,01,06,15.10
2018,08,22,01,07,15.10
2018,08,22,01,08,15.10
2018,08,22,01,09,15.10
2018,08,22,01,10,15.20
2018,08,22,01,11,15.20
2018,08,22,01,12,15.20
2018,08,22,01,13,15.20
2018,08,22,01,14,15.10
2018,08,22,01,15,15.10
2018,08,22,01,16,15.10
2018,08,22,01,17,15.10
2018,08,22,01,18,15.10
2018,08,22,01,19,15.00
2018,08,22,01,20,15.00
2018,08,22,01,21,14.90
2018,08,22,01,22,14.80
2018,08,22,01,23,14.80
2018,08,22,01,24,14.70
2018,08,22,01,25,14.70
2018,08,22,01,26,14.60
2018,08,22,01,27,14.60
2018,08,22,01,28,14.50
2018,08,22,01,29,14.50
2018,08,22,01,30,14.50
2018,08,22,01,31,14.50
2018,08,22,01,32,14.50
2018,08,22,01,33,14.50
2018,08,22,01,34,14.50
2018,08,22,01,35,14.40
2018,08,22,01,36,14.40
2018,08,22,01,37,14.40
2018,08,22,01,38,14.40
2018,08,22,01,39,14.50
2018,08,22,01,40,14.50
2018,08,22,01,41,14.50
2018,08,22,01,42,14.60
2018,08,22,01,43,14.60
2018,08,22,01,44,14.60
2018,08,22,01,45,14.60
2018,08,22,01,46,14.60
2018,08,22,01,47,14.60
2018,08,22,01,48,14.60
2018,08,22,01,49,14.60
2018,08,22,01,50,14.60
2018,08,22,01,51,14.60
2018,08,22,01,52,14.60
2018,08,22,01,53,14.60
2018,08,22,01,54,14.60
2018,08,22,01,55,14.60
2018,08,22,01,56,14.60
2018,08,22,01,57,14.60
2018,08,22,01,58,14.60
2018,08,22,01,59,14.60
2018,08,22,02,00,14.60
2018,08,22,02,01,14.60
2018,08,22,02,02,14.60
2018,08,22,02,03,14.60
2018,08,22,02,04,14.60
2018,08,22,02,05,14.60
2018,08,22,02,06,14.60
2018,08,22,02,07,14.60
2018,08,22,02,08,14.60
2018,08,22,02,09,14.60
2018,08,22,02,10,14.60
2018,08,22,02,11,14.60
2018,08,22,02,12,14.60
2018,08,22,02,13,14.50
2018,08,22,02,14,14.50
2018,08,22,02,15,14.50
2018,08,22,02,16,14.50
2018,08,22,02,17,14.50
2018,08,22,02,18,14.50
2018,08,22,02,19,14.50
2018,08,22,02,20,14.50
2018,08,22,02,21,14.60
2018,08,22,02,22,14.60
2018,08,22,02,23,14.60
2018,08,22,02,24,14.60
2018,08,22,02,25,14.60
2018,08,22,02,26,14.50
2018,08,22,02,27,14.50
2018,08,22,02,28,14.50
2018,08,22,02,29,14.50
2018,08,22,02,30,14.50
2018,08,22,02,31,14.50
2018,08,22,02,32,14.50
2018,08,22,02,33,14.50
2018,08,22,02,34,14.50
2018,08,22,02,35,14.50
2018,08,22,02,36,14.60
2018,08,22,02,37,14.60
2018,08,22,02,38,14.60
2018,08,22,02,39,14.60
2018,08,22,02,40,14.60
2018,08,22,02,41,14.60
2018,08,22,02,42,14.50
2018,08,22,02,43,14.50
2018,08,22,02,44,14.50
2018,08,22,02,45,14.50
2018,08,22,02,46,14.50
2018,08,22,02,47,14.40
2018,08,22,02,48,14.40
2018,08,22,02,49,14.40
2018,08,22,02,50,14.40
2018,08,22,02,51,14.40
2018,08,22,02,52,14.40
2018,08,22,02,53,14.30
2018,08,22,02,54,14.30
2018,08,22,02,55,14.30
2018,08,22,02,56,14.20
2018,08,22,02,57,14.20
2018,08,22,02,58,14.20
2018,08,22,02,59,14.20
2018,08,22,03,00,14.20
2018,08,22,03,01,14.20
2018,08,22,03,02,14.20
2018,08,22,03,03,14.20
2018,08,22,03,04,14.30
2018,08,22,03,05,14.30
2018,08,22,03,06,14.30
2018,08,22,03,07,14.40
2018,08,22,03,08,14.40
2018,08,22,03,09,14.40
2018,08,22,03,10,14.40
2018,08,22,03,11,14.40
2018,08,22,03,12,14.30
2018,08,22,03,13,14.30
2018,08,22,03,14,14.30
2018,08,22,03,15,14.30
2018,08,22,03,16,14.30
2018,08,22,03,17,14.30
2018,08,22,03,18,14.30
2018,08,22,03,19,14.30
2018,08,22,03,20,14.30
2018,08,22,03,21,14.30
2018,08,22,03,22,14.30
2018,08,22,03,23,14.20
2018,08,22,03,24,14.20
2018,08,22,03,25,14.30
2018,08,22,03,26,14.30
2018,08,22,03,27,14.30
2018,08,22,03,28,14.30
2018,08,22,03,29,14.30
2018,08,22,03,30,14.30
2018,08,22,03,31,14.30
2018,08,22,03,32,14.30
2018,08,22,03,33,14.30
2018,08,22,03,34,14.30
2018,08,22,03,35,14.30
2018,08,22,03,36,14.30
2018,08,22,03,37,14.30
2018,08,22,03,38,14.40
2018,08,22,03,39,14.40
2018,08,22,03,40,14.40
2018,08,22,03,41,14.40
2018,08,22,03,42,14.30
2018,08,22,03,43,14.30
2018,08,22,03,44,14.30
2018,08,22,03,45,14.30
2018,08,22,03,46,14.20
2018,08,22,03,47,14.20
2018,08,22,03,48,14.20
2018,08,22,03,49,14.20
2018,08,22,03,50,14.20
2018,08,22,03,51,14.20
2018,08,22,03,52,14.20
2018,08,22,03,53,14.20
2018,08,22,03,54,14.20
2018,08,22,03,55,14.20
2018,08,22,03,56,14.10
2018,08,22,03,57,14.10
2018,08,22,03,58,14.00
2018,08,22,03,59,14.00
2018,08,22,04,00,14.00
2018,08,22,04,01,14.00
2018,08,22,04,02,13.90
2018,08,22,04,03,13.90
2018,08,22,04,04,13.90
2018,08,22,04,05,13.90
2018,08,22,04,06,13.90
2018,08,22,04,07,13.90
2018,08,22,04,08,13.90
2018,08,22,04,09,13.90
2018,08,22,04,10,13.90
2018,08,22,04,11,13.90
2018,08,22,04,12,13.90
2018,08,22,04,13,13.90
2018,08,22,04,14,13.90
2018,08,22,04,15,13.90
2018,08,22,04,16,13.90
2018,08,22,04,17,13.90
2018,08,22,04,18,13.90
2018,08,22,04,19,13.90
2018,08,22,04,20,13.90
2018,08,22,04,21,13.90
2018,08,22,04,22,13.90
2018,08,22,04,23,13.90
2018,08,22,04,24,13.90
2018,08,22,04,25,13.90
2018,08,22,04,26,13.90
2018,08,22,04,27,13.90
2018,08,22,04,28,13.90
2018,08,22,04,29,13.90
2018,08,22,04,30,13.90
2018,08,22,04,31,13.90
2018,08,22,04,32,13.90
2018,08,22,04,33,13.90
2018,08,22,04,34,13.90
2018,08,22,04,35,13.90
2018,08,22,04,36,13.80
2018,08,22,04,37,13.80
2018,08,22,04,38,13.80
2018,08,22,04,39,13.70
2018,08,22,04,40,13.70
2018,08,22,04,41,13.70
2018,08,22,04,42,13.80
2018,08,22,04,43,13.80
2018,08,22,04,44,13.80
2018,08,22,04,45,13.90
2018,08,22,04,46,13.90
2018,08,22,04,47,13.80
2018,08,22,04,48,13.80
2018,08,22,04,49,13.80
2018,08,22,04,50,13.80
2018,08,22,04,51,13.80
2018,08,22,04,52,13.70
2018,08,22,04,53,13.70
2018,08,22,04,54,13.70
2018,08,22,04,55,13.70
2018,08,22,04,56,13.70
2018,08,22,04,57,13.70
2018,08,22,04,58,13.70
2018,08,22,04,59,13.60
2018,08,22,05,00,13.60
2018,08,22,05,01,13.60
2018,08,22,05,02,13.50
2018,08,22,05,03,13.50
2018,08,22,05,04,13.50
2018,08,22,05,05,13.50
2018,08,22,05,06,13.50
2018,08,22,05,07,13.50
2018,08,22,05,08,13.50
2018,08,22,05,09,13.50
2018,08,22,05,10,13.50
2018,08,22,05,11,13.50
2018,08,22,05,12,13.40
2018,08,22,05,13,13.40
2018,08,22,05,14,13.40
2018,08,22,05,15,13.40
2018,08,22,05,16,13.40
2018,08,22,05,17,13.40
2018,08,22,05,18,13.40
2018,08,22,05,19,13.40
2018,08,22,05,20,13.40
2018,08,22,05,21,13.40
2018,08,22,05,22,13.40
2018,08,22,05,23,13.40
2018,08,22,05,24,13.40
2018,08,22,05,25,13.30
2018,08,22,05,26,13.30
2018,08,22,05,27,13.30
2018,08,22,05,28,13.30
2018,08,22,05,29,13.30
2018,08,22,05,30,13.30
2018,08,22,05,31,13.20
2018,08,22,05,32,13.20
2018,08,22,05,33,13.20
2018,08,22,05,34,13.10
2018,08,22,05,35,13.10
2018,08,22,05,36,13.10
2018,08,22,05,37,13.10
2018,08,22,05,38,13.10
2018,08,22,05,39,13.10
2018,08,22,05,40,13.10
2018,08,22,05,41,13.00
2018,08,22,05,42,13.00
2018,08,22,05,43,13.00
2018,08,22,05,44,13.00
2018,08,22,05,45,13.00
2018,08,22,05,46,13.00
2018,08,22,05,47,12.90
2018,08,22,05,48,12.90
2018,08,22,05,49,12.90
2018,08,22,05,50,12.90
2018,08,22,05,51,12.90
2018,08,22,05,52,12.90
2018,08,22,05,53,12.90
2018,08,22,05,54,12.90
2018,08,22,05,55,12.90
2018,08,22,05,56,12.90
2018,08,22,05,57,12.90
2018,08,22,05,58,13.00
2018,08,22,05,59,13.00
2018,08,22,06,00,13.00
2018,08,22,06,01,13.00
2018,08,22,06,02,13.00
2018,08,22,06,03,13.00
2018,08,22,06,04,13.00
2018,08,22,06,05,13.00
2018,08,22,06,06,12.90
2018,08,22,06,07,12.90
2018,08,22,06,08,12.90
2018,08,22,06,09,12.80
2018,08,22,06,10,12.80
2018,08,22,06,11,12.80
2018,08,22,06,12,12.80
2018,08,22,06,13,12.80
2018,08,22,06,14,12.80
2018,08,22,06,15,12.80
2018,08,22,06,16,12.80
2018,08,22,06,17,12.80
2018,08,22,06,18,12.80
2018,08,22,06,19,12.80
2018,08,22,06,20,12.80
2018,08,22,06,21,12.80
2018,08,22,06,22,12.80
2018,08,22,06,23,12.80
2018,08,22,06,24,12.80
2018,08,22,06,25,12.80
2018,08,22,06,26,12.80
2018,08,22,06,27,12.80
2018,08,22,06,28,12.80
2018,08,22,06,29,12.70
2018,08,22,06,30,12.70
2018,08,22,06,31,12.70
2018,08,22,06,32,12.70
2018,08,22,06,33,12.70
2018,08,22,06,34,12.80
2018,08,22,06,35,12.80
2018,08,22,06,36,12.70
2018,08,22,06,37,12.70
2018,08,22,06,38,12.70
2018,08,22,06,39,12.70
2018,08,22,06,40,12.60
2018,08,22,06,41,12.60
2018,08,22,06,42,12.60
2018,08,22,06,43,12.60
2018,08,22,06,44,12.60
2018,08,22,06,45,12.60
2018,08,22,06,46,12.60
2018,08,22,06,47,12.60
2018,08,22,06,48,12.60
2018,08,22,06,49,12.60
2018,08,22,06,50,12.60
2018,08,22,06,51,12.60
2018,08,22,06,52,12.60
2018,08,22,06,53,12.60
2018,08,22,06,54,12.60
2018,08,22,06,55,12.60
2018,08,22,06,56,12.60
2018,08,22,06,57,12.60
2018,08,22,06,58,12.70
2018,08,22,06,59,12.70
2018,08,22,07,00,12.70
2018,08,22,07,01,12.70
2018,08,22,07,02,12.70
2018,08,22,07,03,12.70
2018,08,22,07,04,12.80
2018,08,22,07,05,12.80
2018,08,22,07,06,12.80
2018,08,22,07,07,12.90
2018,08,22,07,08,12.90
2018,08,22,07,09,13.00
2018,08,22,07,10,13.00
2018,08,22,07,11,13.10
2018,08,22,07,12,13.10
2018,08,22,07,13,13.20
2018,08,22,07,14,13.20
2018,08,22,07,15,13.20
2018,08,22,07,16,13.30
2018,08,22,07,17,13.30
2018,08,22,07,18,13.30
2018,08,22,07,19,13.30
2018,08,22,07,20,13.30
2018,08,22,07,21,13.40
2018,08,22,07,22,13.40
2018,08,22,07,23,13.40
2018,08,22,07,24,13.50
2018,08,22,07,25,13.50
2018,08,22,07,26,13.50
2018,08,22,07,27,13.60
2018,08,22,07,28,13.60
2018,08,22,07,29,13.60
2018,08,22,07,30,13.60
2018,08,22,07,31,13.60
2018,08,22,07,32,13.60
2018,08,22,07,33,13.60
2018,08,22,07,34,13.60
2018,08,22,07,35,13.60
2018,08,22,07,36,13.60
2018,08,22,07,37,13.70
2018,08,22,07,38,13.70
2018,08,22,07,39,13.70
2018,08,22,07,40,13.70
2018,08,22,07,41,13.80
2018,08,22,07,42,13.90
2018,08,22,07,43,13.90
2018,08,22,07,44,13.90
2018,08,22,07,45,14.00
2018,08,22,07,46,14.00
2018,08,22,07,47,14.00
2018,08,22,07,48,14.10
2018,08,22,07,49,14.20
2018,08,22,07,50,14.20
2018,08,22,07,51,14.20
2018,08,22,07,52,14.20
2018,08,22,07,53,14.30
2018,08,22,07,54,14.40
2018,08,22,07,55,14.40
2018,08,22,07,56,14.50
2018,08,22,07,57,14.50
2018,08,22,07,58,14.50
2018,08,22,07,59,14.60
2018,08,22,08,00,14.60
2018,08,22,08,01,14.70
2018,08,22,08,02,14.70
2018,08,22,08,03,14.70
2018,08,22,08,04,14.80
2018,08,22,08,05,14.80
2018,08,22,08,06,14.80
2018,08,22,08,07,14.90
2018,08,22,08,08,14.90
2018,08,22,08,09,14.90
2018,08,22,08,10,15.00
2018,08,22,08,11,15.00
2018,08,22,08,12,15.10
2018,08,22,08,13,15.10
2018,08,22,08,14,15.20
2018,08,22,08,15,15.20
2018,08,22,08,16,15.20
2018,08,22,08,17,15.30
2018,08,22,08,18,15.30
2018,08,22,08,19,15.30
2018,08,22,08,20,15.30
2018,08,22,08,21,15.40
2018,08,22,08,22,15.40
2018,08,22,08,23,15.50
2018,08,22,08,24,15.50
2018,08,22,08,25,15.60
2018,08,22,08,26,15.60
2018,08,22,08,27,15.70
2018,08,22,08,28,15.70
2018,08,22,08,29,15.80
2018,08,22,08,30,15.80
2018,08,22,08,31,15.80
2018,08,22,08,32,15.90
2018,08,22,08,33,15.90
2018,08,22,08,34,16.10
2018,08,22,08,35,16.10
2018,08,22,08,36,16.10
2018,08,22,08,37,16.20
2018,08,22,08,38,16.20
2018,08,22,08,39,16.30
2018,08,22,08,40,16.30
2018,08,22,08,41,16.30
2018,08,22,08,42,16.40
2018,08,22,08,43,16.40
2018,08,22,08,44,16.40
2018,08,22,08,45,16.40
2018,08,22,08,46,16.50
2018,08,22,08,47,16.60
2018,08,22,08,48,16.60
2018,08,22,08,49,16.70
2018,08,22,08,50,16.70
2018,08,22,08,51,16.80
2018,08,22,08,52,16.90
2018,08,22,08,53,17.00
2018,08,22,08,54,17.00
2018,08,22,08,55,17.10
2018,08,22,08,56,17.10
2018,08,22,08,57,17.20
2018,08,22,08,58,17.30
2018,08,22,08,59,17.30
2018,08,22,09,00,17.30
2018,08,22,09,01,17.40
2018,08,22,09,02,17.50
2018,08,22,09,03,17.50
2018,08,22,09,04,17.60
2018,08,22,09,05,17.70
2018,08,22,09,06,17.80
2018,08,22,09,07,17.90
2018,08,22,09,08,17.90
2018,08,22,09,09,17.90
2018,08,22,09,10,18.00
2018,08,22,09,11,18.10
2018,08,22,09,12,18.10
2018,08,22,09,13,18.10
2018,08,22,09,14,18.10
2018,08,22,09,15,18.10
2018,08,22,09,16,18.00
2018,08,22,09,17,17.90
2018,08,22,09,18,17.90
2018,08,22,09,19,17.80
2018,08,22,09,20,17.80
2018,08,22,09,21,17.80
2018,08,22,09,22,17.80
2018,08,22,09,23,17.80
2018,08,22,09,24,17.90
2018,08,22,09,25,17.90
2018,08,22,09,26,17.90
2018,08,22,09,27,17.90
2018,08,22,09,28,17.90
2018,08,22,09,29,17.90
2018,08,22,09,30,18.00
2018,08,22,09,31,18.10
2018,08,22,09,32,18.20
2018,08,22,09,33,18.20
2018,08,22,09,34,18.30
2018,08,22,09,35,18.40
2018,08,22,09,36,18.50
2018,08,22,09,37,18.60
2018,08,22,09,38,18.60
2018,08,22,09,39,18.60
2018,08,22,09,40,18.70
2018,08,22,09,41,18.70
2018,08,22,09,42,18.80
2018,08,22,09,43,18.80
2018,08,22,09,44,18.80
2018,08,22,09,45,18.80
2018,08,22,09,46,18.70
2018,08,22,09,47,18.70
2018,08,22,09,48,18.70
2018,08,22,09,49,18.70
2018,08,22,09,50,18.70
2018,08,22,09,51,18.70
2018,08,22,09,52,18.60
2018,08,22,09,53,18.60
2018,08,22,09,54,18.60
2018,08,22,09,55,18.60
2018,08,22,09,56,18.60
2018,08,22,09,57,18.70
2018,08,22,09,58,18.70
2018,08,22,09,59,18.70
2018,08,22,10,00,18.80
2018,08,22,10,01,18.80
2018,08,22,10,02,18.90
2018,08,22,10,03,18.90
2018,08,22,10,04,18.90
2018,08,22,10,05,18.90
2018,08,22,10,06,18.90
2018,08,22,10,07,18.90
2018,08,22,10,08,18.90
2018,08,22,10,09,18.90
2018,08,22,10,10,19.00
2018,08,22,10,11,19.10
2018,08,22,10,12,19.00
2018,08,22,10,13,18.90
2018,08,22,10,14,18.90
2018,08,22,10,15,18.90
2018,08,22,10,16,18.90
2018,08,22,10,17,18.90
2018,08,22,10,18,18.90
2018,08,22,10,19,18.90
2018,08,22,10,20,18.80
2018,08,22,10,21,18.80
2018,08,22,10,22,18.70
2018,08,22,10,23,18.70
2018,08,22,10,24,18.70
2018,08,22,10,25,18.80
2018,08,22,10,26,18.80
2018,08,22,10,27,18.80
2018,08,22,10,28,18.80
2018,08,22,10,29,18.90
2018,08,22,10,30,18.90
2018,08,22,10,31,18.90
2018,08,22,10,32,19.00
2018,08,22,10,33,19.10
2018,08,22,10,34,19.10
2018,08,22,10,35,19.10
2018,08,22,10,36,19.20
2018,08,22,10,37,19.20
2018,08,22,10,38,19.20
2018,08,22,10,39,19.20
2018,08,22,10,40,19.20
2018,08,22,10,41,19.20
2018,08,22,10,42,19.30
2018,08,22,10,43,19.30
2018,08,22,10,44,19.30
2018,08,22,10,45,19.30
2018,08,22,10,46,19.40
2018,08,22,10,47,19.40
2018,08,22,10,48,19.50
2018,08,22,10,49,19.50
2018,08,22,10,50,19.50
2018,08,22,10,51,19.60
2018,08,22,10,52,19.60
2018,08,22,10,53,19.60
2018,08,22,10,54,19.60
2018,08,22,10,55,19.70
2018,08,22,10,56,19.70
2018,08,22,10,57,19.70
2018,08,22,10,58,19.70
2018,08,22,10,59,19.70
2018,08,22,11,00,19.80
2018,08,22,11,01,19.80
2018,08,22,11,02,19.80
2018,08,22,11,03,19.80
2018,08,22,11,04,19.90
2018,08,22,11,05,19.90
2018,08,22,11,06,19.90
2018,08,22,11,07,19.90
2018,08,22,11,08,19.90
2018,08,22,11,09,19.80
2018,08,22,11,10,19.80
2018,08,22,11,11,19.90
2018,08,22,11,12,19.80
2018,08,22,11,13,19.80
2018,08,22,11,14,19.80
2018,08,22,11,15,19.80
2018,08,22,11,16,19.80
2018,08,22,11,17,19.80
2018,08,22,11,18,19.80
2018,08,22,11,19,19.80
2018,08,22,11,20,19.90
2018,08,22,11,21,19.90
2018,08,22,11,22,20.00
2018,08,22,11,23,20.10
2018,08,22,11,24,20.20
2018,08,22,11,25,20.30
2018,08,22,11,26,20.40
2018,08,22,11,27,20.50
2018,08,22,11,28,20.60
2018,08,22,11,29,20.60
2018,08,22,11,30,20.60
2018,08,22,11,31,20.50
2018,08,22,11,32,20.40
2018,08,22,11,33,20.20
2018,08,22,11,34,20.10
2018,08,22,11,35,20.00
2018,08,22,11,36,19.90
2018,08,22,11,37,19.80
2018,08,22,11,38,19.70
2018,08,22,11,39,19.60
2018,08,22,11,40,19.40
2018,08,22,11,41,19.30
2018,08,22,11,42,19.30
2018,08,22,11,43,19.10
2018,08,22,11,44,19.10
2018,08,22,11,45,19.10
2018,08,22,11,46,19.10
2018,08,22,11,47,19.10
2018,08,22,11,48,19.10
2018,08,22,11,49,19.10
2018,08,22,11,50,19.10
2018,08,22,11,51,19.00
2018,08,22,11,52,18.90
2018,08,22,11,53,18.90
2018,08,22,11,54,18.90
2018,08,22,11,55,18.80
2018,08,22,11,56,18.80
2018,08,22,11,57,18.80
2018,08,22,11,58,18.80
2018,08,22,11,59,18.80
2018,08,22,12,00,18.80
2018,08,22,12,01,18.80
2018,08,22,12,02,18.80
2018,08,22,12,03,18.80
2018,08,22,12,04,18.90
2018,08,22,12,05,18.90
2018,08,22,12,06,18.90
2018,08,22,12,07,19.10
2018,08,22,12,08,19.10
2018,08,22,12,09,19.20
2018,08,22,12,10,19.30
2018,08,22,12,11,19.30
2018,08,22,12,12,19.40
2018,08,22,12,13,19.40
2018,08,22,12,14,19.40
2018,08,22,12,15,19.40
2018,08,22,12,16,19.40
2018,08,22,12,17,19.30
2018,08,22,12,18,19.30
2018,08,22,12,19,19.30
2018,08,22,12,20,19.30
2018,08,22,12,21,19.30
2018,08,22,12,22,19.40
2018,08,22,12,23,19.40
2018,08,22,12,24,19.40
2018,08,22,12,25,19.50
2018,08,22,12,26,19.60
2018,08,22,12,27,19.60
2018,08,22,12,28,19.70
2018,08,22,12,29,19.80
2018,08,22,12,30,19.80
2018,08,22,12,31,19.80
2018,08,22,12,32,19.80
2018,08,22,12,33,19.70
2018,08,22,12,34,19.70
2018,08,22,12,35,19.70
2018,08,22,12,36,19.60
2018,08,22,12,37,19.50
2018,08,22,12,38,19.50
2018,08,22,12,39,19.50
2018,08,22,12,40,19.60
2018,08,22,12,41,19.60
2018,08,22,12,42,19.70
2018,08,22,12,43,19.70
2018,08,22,12,44,19.80
2018,08,22,12,45,19.80
2018,08,22,12,46,19.90
2018,08,22,12,47,19.90
2018,08,22,12,48,19.90
2018,08,22,12,49,20.10
2018,08,22,12,50,20.20
2018,08,22,12,51,20.20
2018,08,22,12,52,20.40
2018,08,22,12,53,20.50
2018,08,22,12,54,20.50
2018,08,22,12,55,20.60
2018,08,22,12,56,20.70
2018,08,22,12,57,20.70
2018,08,22,12,58,20.70
2018,08,22,12,59,20.80
2018,08,22,13,00,20.80
2018,08,22,13,01,20.80
2018,08,22,13,02,20.80
2018,08,22,13,03,20.80
2018,08,22,13,04,20.70
2018,08,22,13,05,20.70
2018,08,22,13,06,20.60
2018,08,22,13,07,20.60
2018,08,22,13,08,20.50
2018,08,22,13,09,20.40
2018,08,22,13,10,20.30
2018,08,22,13,11,20.40
2018,08,22,13,12,20.30
2018,08,22,13,13,20.30
2018,08,22,13,14,20.20
2018,08,22,13,15,20.00
2018,08,22,13,16,19.90
2018,08,22,13,17,19.90
2018,08,22,13,18,19.90
2018,08,22,13,19,19.90
2018,08,22,13,20,19.80
2018,08,22,13,21,19.80
2018,08,22,13,22,19.90
2018,08,22,13,23,19.90
2018,08,22,13,24,20.00
2018,08,22,13,25,20.10
2018,08,22,13,26,20.20
2018,08,22,13,27,20.20
2018,08,22,13,28,20.20
2018,08,22,13,29,20.20
2018,08,22,13,30,20.30
2018,08,22,13,31,20.30
2018,08,22,13,32,20.30
2018,08,22,13,33,20.30
2018,08,22,13,34,20.40
2018,08,22,13,35,20.50
2018,08,22,13,36,20.50
2018,08,22,13,37,20.50
2018,08,22,13,38,20.50
2018,08,22,13,39,20.60
2018,08,22,13,40,20.60
2018,08,22,13,41,20.60
2018,08,22,13,42,20.60
2018,08,22,13,43,20.60
2018,08,22,13,44,20.60
2018,08,22,13,45,20.70
2018,08,22,13,46,20.70
2018,08,22,13,47,20.70
2018,08,22,13,48,20.70
2018,08,22,13,49,20.60
2018,08,22,13,50,20.50
2018,08,22,13,51,20.50
2018,08,22,13,52,20.40
2018,08,22,13,53,20.30
2018,08,22,13,54,20.20
2018,08,22,13,55,20.20
2018,08,22,13,56,20.20
2018,08,22,13,57,20.20
2018,08,22,13,58,20.20
2018,08,22,13,59,20.10
2018,08,22,14,00,20.00
2018,08,22,14,01,19.90
2018,08,22,14,02,19.90
2018,08,22,14,03,19.90
2018,08,22,14,04,19.90
2018,08,22,14,05,19.80
2018,08,22,14,06,19.90
2018,08,22,14,07,19.90
2018,08,22,14,08,19.90
2018,08,22,14,09,20.00
2018,08,22,14,10,20.20
2018,08,22,14,11,20.20
2018,08,22,14,12,20.30
2018,08,22,14,13,20.40
2018,08,22,14,14,20.50
2018,08,22,14,15,20.60
2018,08,22,14,16,20.70
2018,08,22,14,17,20.80
2018,08,22,14,18,20.90
2018,08,22,14,19,21.00
2018,08,22,14,20,21.10
2018,08,22,14,21,21.10
2018,08,22,14,22,21.10
2018,08,22,14,23,21.20
2018,08,22,14,24,21.30
2018,08,22,14,25,21.30
2018,08,22,14,26,21.30
2018,08,22,14,27,21.30
2018,08,22,14,28,21.30
2018,08,22,14,29,21.30
2018,08,22,14,30,21.30
2018,08,22,14,31,21.30
2018,08,22,14,32,21.30
2018,08,22,14,33,21.30
2018,08,22,14,34,21.30
2018,08,22,14,35,21.40
2018,08,22,14,36,21.40
2018,08,22,14,37,21.40
2018,08,22,14,38,21.40
2018,08,22,14,39,21.40
2018,08,22,14,40,21.40
2018,08,22,14,41,21.30
2018,08,22,14,42,21.20
2018,08,22,14,43,21.10
2018,08,22,14,44,21.10
2018,08,22,14,45,21.10
2018,08,22,14,46,21.10
2018,08,22,14,47,21.10
2018,08,22,14,48,21.00
2018,08,22,14,49,21.00
2018,08,22,14,50,21.00
2018,08,22,14,51,21.00
2018,08,22,14,52,21.00
2018,08,22,14,53,20.90
2018,08,22,14,54,20.90
2018,08,22,14,55,20.90
2018,08,22,14,56,20.80
2018,08,22,14,57,20.80
2018,08,22,14,58,20.80
2018,08,22,14,59,20.80
2018,08,22,15,00,20.70
2018,08,22,15,01,20.60
2018,08,22,15,02,20.60
2018,08,22,15,03,20.50
2018,08,22,15,04,20.50
2018,08,22,15,05,20.50
2018,08,22,15,06,20.60
2018,08,22,15,07,20.60
2018,08,22,15,08,20.60
2018,08,22,15,09,20.60
2018,08,22,15,10,20.60
2018,08,22,15,11,20.60
2018,08,22,15,12,20.70
2018,08,22,15,13,20.80
2018,08,22,15,14,20.90
2018,08,22,15,15,20.90
2018,08,22,15,16,20.80
2018,08,22,15,17,20.80
2018,08,22,15,18,20.70
2018,08,22,15,19,20.60
2018,08,22,15,20,20.60
2018,08,22,15,21,20.60
2018,08,22,15,22,20.60
2018,08,22,15,23,20.60
2018,08,22,15,24,20.60
2018,08,22,15,25,20.50
2018,08,22,15,26,20.50
2018,08,22,15,27,20.40
2018,08,22,15,28,20.40
2018,08,22,15,29,20.40
2018,08,22,15,30,20.50
2018,08,22,15,31,20.50
2018,08,22,15,32,20.50
2018,08,22,15,33,20.40
2018,08,22,15,34,20.30
2018,08,22,15,35,20.30
2018,08,22,15,36,20.30
2018,08,22,15,37,20.20
2018,08,22,15,38,20.10
2018,08,22,15,39,20.10
2018,08,22,15,40,20.00
2018,08,22,15,41,19.90
2018,08,22,15,42,19.90
2018,08,22,15,43,19.90
2018,08,22,15,44,19.90
2018,08,22,15,45,19.90
2018,08,22,15,46,19.90
2018,08,22,15,47,19.90
2018,08,22,15,48,19.90
2018,08,22,15,49,19.90
2018,08,22,15,50,19.90
2018,08,22,15,51,19.90
2018,08,22,15,52,19.90
2018,08,22,15,53,19.90
2018,08,22,15,54,19.90
2018,08,22,15,55,20.10
2018,08,22,15,56,20.10
2018,08,22,15,57,20.20
2018,08,22,15,58,20.20
2018,08,22,15,59,20.20
2018,08,22,16,00,20.20
2018,08,22,16,01,20.20
2018,08,22,16,02,20.20
2018,08,22,16,03,20.20
2018,08,22,16,04,20.20
2018,08,22,16,05,20.20
2018,08,22,16,06,20.20
2018,08,22,16,07,20.20
2018,08,22,16,08,20.20
2018,08,22,16,09,20.20
2018,08,22,16,10,20.30
2018,08,22,16,11,20.30
2018,08,22,16,12,20.30
2018,08,22,16,13,20.30
2018,08,22,16,14,20.30
2018,08,22,16,15,20.30
2018,08,22,16,16,20.40
2018,08,22,16,17,20.40
2018,08,22,16,18,20.40
2018,08,22,16,19,20.40
2018,08,22,16,20,20.30
2018,08,22,16,21,20.40
2018,08,22,16,22,20.40
2018,08,22,16,23,20.40
2018,08,22,16,24,20.30
2018,08,22,16,25,20.30
2018,08,22,16,26,20.30
2018,08,22,16,27,20.30
2018,08,22,16,28,20.30
2018,08,22,16,29,20.30
2018,08,22,16,30,20.30
2018,08,22,16,31,20.30
2018,08,22,16,32,20.30
2018,08,22,16,33,20.30
2018,08,22,16,34,20.30
2018,08,22,16,35,20.30
2018,08,22,16,36,20.30
2018,08,22,16,37,20.30
2018,08,22,16,38,20.30
2018,08,22,16,39,20.30
2018,08,22,16,40,20.30
2018,08,22,16,41,20.20
2018,08,22,16,42,20.20
2018,08,22,16,43,20.20
2018,08,22,16,44,20.20
2018,08,22,16,45,20.20
2018,08,22,16,46,20.20
2018,08,22,16,47,20.20
2018,08,22,16,48,20.20
2018,08,22,16,49,20.10
2018,08,22,16,50,20.10
2018,08,22,16,51,20.00
2018,08,22,16,52,19.90
2018,08,22,16,53,19.90
2018,08,22,16,54,19.90
2018,08,22,16,55,19.90
2018,08,22,16,56,19.90
2018,08,22,16,57,20.00
2018,08,22,16,58,20.10
2018,08,22,16,59,20.10
2018,08,22,17,00,20.20
2018,08,22,17,01,20.20
2018,08,22,17,02,20.20
2018,08,22,17,03,20.20
2018,08,22,17,04,20.20
2018,08,22,17,05,20.20
2018,08,22,17,06,20.20
2018,08,22,17,07,20.20
2018,08,22,17,08,20.20
2018,08,22,17,09,20.20
2018,08,22,17,10,20.20
2018,08,22,17,11,20.20
2018,08,22,17,12,20.20
2018,08,22,17,13,20.20
2018,08,22,17,14,20.20
2018,08,22,17,15,20.20
2018,08,22,17,16,20.20
2018,08,22,17,17,20.20
2018,08,22,17,18,20.20
2018,08,22,17,19,20.20